Location: Champignolles
(47.0543°N, 4.5663°E)
Time: 00:02:08
(UTC+00:00)

N. Korean satellite - Pass Details

Date: 14 December 2021
Orbit: 447 x 491 km, 97.3° (Epoch: 21 January)

Event Time Altitude Azimuth Distance (km) Brightness Sun altitude
Rises 16:54:16 0° 200° (SSW) 2,487 10.9 -10.0°
Reaches altitude 10° 16:56:44 10° 218° (SW) 1,608 10.3 -10.4°
Maximum altitude 16:59:18 19° 266° (W) 1,142 9.5 -10.8°
Drops below altitude 10° 17:01:51 10° 315° (NW) 1,602 9.5 -11.2°
Sets 17:04:19 0° 333° (NNW) 2,475 10.2 -11.6°
